Regional Weather Roundup
Issued by NWS

Home | Current Version | Previous Version | Graphics & Text | Print | Product List | Glossary On
Versions: 1 2 3 4 5 6 7 8 9 10 11 12 13 14 15 16 17 18 19 20 21 22 23 24 25 26 27 28 29 30 31 32 33 34 35 36 37 38 39 40 41 42 43 44 45 46 47 48 49 50
000
ASUS45 KBOI 221910
RWRID
WEATHER ROUNDUP FOR IDAHO
NATIONAL WEATHER SERVICE BOISE ID
100 PM MDT MON SEP 22 2014

NOTE: "FAIR" INDICATES FEW OR NO CLOUDS BELOW 12000 FEET
WITH NO SIGNIFICANT WEATHER AND/OR OBSTRUCTIONS TO VISIBILITY

IDZ012-014-222000-
SOUTHWEST IDAHO


CITY           SKY/WX    TMP DP  RH WIND       PRES   REMARKS
BOISE          SUNNY     76  52  43 N3        30.06F
CALDWELL       SUNNY     75  52  43 SE6       30.07F
MOUNTAIN HOME  MOSUNNY   73  55  54 VRB6      30.07F
$$

IDZ016-017-222000-
SOUTHCENTRAL IDAHO


CITY           SKY/WX    TMP DP  RH WIND       PRES   REMARKS
BURLEY         PTSUNNY   72  49  44 W6        30.12S
JEROME         PTSUNNY   68  48  48 W5        30.13F
TWIN FALLS     PTSUNNY   74  53  48 N7        30.12F
$$

IDZ019>023-222000-
SOUTHEAST IDAHO


CITY           SKY/WX    TMP DP  RH WIND       PRES   REMARKS
IDAHO FALLS    PTSUNNY   69  54  58 SW15      30.15F
POCATELLO      CLOUDY    69  55  60 VRB6      30.15F
REXBURG        MOSUNNY   66  53  63 SW9       30.15F
$$

IDZ006-010-011-018-031-032-222000-
CENTRAL IDAHO MOUNTAINS


CITY           SKY/WX    TMP DP  RH WIND       PRES   REMARKS
MCCALL         PTSUNNY   68  49  50 VRB3      30.13S
HAILEY         PTSUNNY   64  55  72 SE12      30.18F
STANLEY          N/A     58  47  66 CALM      30.22S
SALMON         MOSUNNY   72  52  49 S17       30.05F
CHALLIS        CLOUDY    62  53  72 E3        30.15F
$$

IDZ002-004-006-007-026-222000-
NORTHERN IDAHO


CITY           SKY/WX    TMP DP  RH WIND       PRES   REMARKS
LEWISTON       CLOUDY    71  45  39 W5        29.95R
LOWELL           N/A     73  51  46 CALM      29.96F
COEUR D`ALENE  MOSUNNY   73  48  40 SE7       29.95F
MULLAN PASS    SUNNY     67  39  35 NW7       30.13S
$$


USA.gov is the U.S. government's official web portal to all federal, state and local government web resources and services.